Location: Catacaguana
(10.4120°N, 66.7591°W)
Time: 04:03:13
(UTC+00:00)

CZ-3 R/B - Pass Details

Date: 27 May 2022
Orbit: 424 x 10170 km, 28.3° (Epoch: 24 June)

Event Time Altitude Azimuth Distance (km) Brightness Sun altitude
Rises 08:51:12 0° 285° (WNW) 12,903 6.8 -17.2°
Reaches altitude 10° 09:07:12 10° 293° (WNW) 9,725 6.2 -13.7°
Maximum altitude 09:32:36 38° 355° (N) 3,106 4.3 -8.0°
Drops below altitude 10° 09:40:11 10° 63° (ENE) 3,115 6.0 -6.3°
Sets 09:42:12 0° 73° (ENE) 3,632 7.1 -5.8°
